Home   Weather   Prince Rupert   Past weeks

Flag for Canada Past Weather in Prince Rupert, British Columbia, Canada — Yesterday and Last 2 Weeks

Now
50 °F

Mostly cloudy.


Feels Like: 50 °F
Forecast: 42 / 58 °F
Wind: No wind

Location: Prince Rupert

Current Time: Sep 30, 2016 at 8:18:04 PM

Latest Report: Sep 30, 2016 at 8:00 PM


Visibility: 9 mi

Pressure: 29.95 "Hg

Humidity: 94%

Dew Point: 48 °F

Location of Prince RupertLocation

Past Weather in Prince Rupert — Graph

°F

Prince Rupert Temperature Yesterday

Maximum temperature yesterday: 55 °F (at 2:00 PM)
Minimum temperature yesterday: 39 °F (at 7:00 AM)
Average temperature yesterday: 48 °F

High & Low Weather Summary for the Past Weeks

 TemperatureHumidityPressure
High61 °F (Sep 17, 1:00 PM)100% (Sep 16, 9:00 AM)30.31 "Hg (Sep 16, 9:00 AM)
Low39 °F (Sep 29, 7:00 AM)63% (Sep 22, 12:00 PM)29.55 "Hg (Sep 22, 10:52 PM)
Average52 °F92%29.98 "Hg
* Reported Sep 15 7:01 PM — Sep 30 7:00 PM, Prince Rupert, Weather by CustomWeather, © 2016

Note: Actual official high and low records may vary slightly from our data, if they occured in-between our weather recording intervals... More about our weather records

Advertising

Prince Rupert Weather History for the Previous 24 Hours

Scroll right to see more
 ConditionsComfort  
Time TempWeatherWind HumidityBarometerVisibility
7:00 PM
Fri, Sep 30
50 °FScattered clouds.3 mph94%29.95 "Hg9 mi
6:00 PM52 °FBroken clouds.No wind82%29.94 "Hg9 mi
5:58 PM52 °FBroken clouds.2 mph82%29.94 "Hg9 mi
5:00 PM52 °FMore clouds than sun.3 mph82%29.94 "Hg9 mi
4:00 PM54 °FOvercast.3 mph77%29.95 "Hg9 mi
3:00 PM52 °FOvercast.5 mph88%29.95 "Hg9 mi
2:00 PM52 °FPartly sunny.5 mph88%29.96 "Hg9 mi
1:00 PM54 °FPassing clouds.5 mph82%29.97 "Hg9 mi
12:00 PM50 °FBroken clouds.3 mph94%29.98 "Hg9 mi
11:57 AM50 °FBroken clouds.No wind94%29.98 "Hg9 mi
11:00 AM48 °FLow clouds.2 mph94%29.98 "Hg9 mi
10:00 AM48 °FLow clouds.6 mph94%29.99 "Hg9 mi
9:59 AM48 °FLow clouds.6 mph94%29.99 "Hg9 mi
9:00 AM45 °FPartly sunny.3 mph100%30.00 "Hg9 mi
8:00 AM41 °FPartly sunny.3 mph100%30.00 "Hg9 mi
7:00 AM43 °FLow clouds.8 mph100%30.02 "Hg9 mi
6:00 AM43 °FClear.5 mph100%30.03 "Hg9 mi
5:00 AM43 °FClear.6 mph100%30.05 "Hg9 mi
4:00 AM43 °FClear.5 mph100%30.06 "Hg9 mi
3:00 AM43 °FClear.5 mph100%30.08 "Hg9 mi
2:00 AM45 °FClear.6 mph93%30.09 "Hg9 mi
1:00 AM45 °FClear.6 mph100%30.10 "Hg9 mi
12:00 AM45 °FClear.2 mph100%30.11 "Hg9 mi
11:00 PM
Thu, Sep 29
45 °FClear.5 mph100%30.11 "Hg9 mi
10:00 PM45 °FClear.No wind93%30.12 "Hg9 mi
9:00 PM46 °FClear.No wind87%30.12 "Hg9 mi
8:00 PM48 °FClear.2 mph87%30.12 "Hg9 mi
Weather by CustomWeather, © 2016

See weather overviewHow to use our weather pages